R/V Knorr Calliope CSV data file - KN193_II  (Time stamps are GMT)
Date, Time_GMT, Depth12, Depth35, Air_Temp, WXT5_Ta, WXT5_Pa, dec_lat, dec_lon, EDO_knt, GPS_COG, GPS_SOG, Gyro, IMET_BPR, IMET_SWR, WXT5_Ri, WXT5_Rc, HRH, WXT5_Ua, WXT5_Dm, WXT5_Sm, SBE45C, SBE45S, SBE45T, Salinity, SSCND, Fluorometer, SSTMP, SSV, Wnd_Dir, TWD_5, Wnd_Spd, TWS_5, HdChkSum=52
2008/04/19, 00:00:43, 3769.00, 0.00, -10.99, -10.40, 1013.7, 76.3363700, -2.4258280, , 154.30, 0.63, 310.30, 1014.80, 0.80, 0.0, 38.66, 64.81, 69.9, 323, 4.9, 30.23020, 34.50710, 1.8220, 34.5071, 30.2302, 65.20, -0.1080, 1447.98, 303.30, 275.1, 1.63, 4.8, 52
2008/04/19, 00:01:43, 3769.00, 0.00, -10.91, -10.40, 1013.7, 76.3362280, -2.4261750, , 63.40, 0.36, 309.50, 1014.74, 0.80, 0.0, 38.66, 65.62, 70.3, 327, 4.6, 30.23380, 34.50580, 1.8274, 34.5058, 30.2338, 65.20, -0.1116, 1447.96, 321.00, 282.4, 1.15, 4.2, 52
2008/04/19, 00:02:43, 3769.00, 0.00, -10.94, -10.40, 1013.7, 76.3360830, -2.4265480, , 211.30, 1.12, 310.00, 1014.69, 0.90, 0.0, 38.66, 65.23, 70.9, 310, 5.0, 30.23310, 34.50730, 1.8253, 34.5073, 30.2331, 65.20, -0.1123, 1447.96, 323.40, 260.0, 1.14, 4.7, 52
2008/04/19, 00:03:43, 3769.00, 0.00, -10.94, -10.40, 1013.7, 76.3359350, -2.4269130, , 221.20, 0.67, 309.50, 1014.69, 1.00, 0.0, 38.66, 65.43, 70.4, 275, 4.8, 30.22550, 34.50720, 1.8167, 34.5072, 30.2255, 65.90, -0.1127, 1447.96, 327.50, 218.7, 0.80, 4.7, 52
2008/04/19, 00:04:44, 3769.00, 0.00, -10.94, -10.40, 1013.7, 76.3357800, -2.4273350, , 214.70, 1.42, 309.80, 1014.68, 0.80, 0.0, 38.66, 64.86, 69.9, 277, 4.4, 30.23020, 34.50770, 1.8215, 34.5077, 30.2302, 65.60, -0.1141, 1447.96, 325.50, 223.5, 0.74, 4.2, 52
2008/04/19, 00:05:43, 3770.00, 0.00, -11.05, -10.40, 1013.6, 76.3356300, -2.4277120, , 206.60, 1.04, 309.60, 1014.71, 0.80, 0.0, 38.66, 64.91, 70.3, 307, 4.3, 30.22950, 34.50660, 1.8218, 34.5066, 30.2295, 65.60, -0.1152, 1447.95, 338.00, 258.3, 0.76, 4.0, 52
2008/04/19, 00:06:43, 3769.00, 0.00, -11.05, -10.40, 1013.6, 76.3354750, -2.4280900, , 188.70, 1.03, 310.40, 1014.72, 0.60, 0.0, 38.66, 65.12, 70.5, 276, 4.9, 30.22970, 34.50860, 1.8201, 34.5086, 30.2297, 65.60, -0.1143, 1447.95, 332.10, 226.9, 0.96, 4.6, 52
2008/04/19, 00:07:43, 3769.00, 0.00, -10.99, -10.40, 1013.6, 76.3353220, -2.4284550, , 223.50, 0.83, 310.60, 1014.72, 0.80, 0.0, 38.66, 65.36, 70.0, 309, 5.1, 30.21890, 34.50750, 1.8088, 34.5075, 30.2189, 65.60, -0.1131, 1447.96, 318.10, 256.1, 0.74, 4.9, 52
2008/04/19, 00:08:44, 3769.00, 0.00, -11.13, -10.40, 1013.6, 76.3351600, -2.4288700, , 220.50, 0.97, 309.80, 1014.75, 0.70, 0.0, 38.66, 64.26, 69.1, 289, 4.4, 30.21300, 34.50950, 1.8002, 34.5095, 30.2130, 65.60, -0.1103, 1447.97, 319.40, 235.8, 0.70, 4.3, 52
2008/04/19, 00:09:43, 3769.00, 0.00, -11.05, -10.40, 1013.6, 76.3350000, -2.4292880, , 219.00, 1.55, 310.00, 1014.58, 0.70, 0.0, 38.66, 63.77, 68.9, 325, 4.2, 30.19840, 34.50950, 1.7833, 34.5095, 30.1984, 65.60, -0.1079, 1447.98, 325.70, 276.0, 0.72, 4.1, 52
2008/04/19, 00:10:43, 3769.00, 0.00, -10.99, -10.40, 1013.7, 76.3348430, -2.4297000, , 235.70, 1.04, 310.40, 1014.76, 0.60, 0.0, 38.66, 64.71, 69.6, 312, 3.6, 30.19490, 34.50840, 1.7802, 34.5084, 30.1949, 65.60, -0.1062, 1447.99, 309.10, 260.0, 0.26, 3.3, 52
2008/04/19, 00:11:44, 3769.00, 0.00, -10.99, -10.40, 1013.6, 76.3346950, -2.4301080, , 211.10, 1.10, 309.60, 1014.71, 0.60, 0.0, 38.66, 64.58, 69.5, 341, 3.3, 30.19740, 34.50620, 1.7851, 34.5062, 30.1974, 65.60, -0.1066, 1447.99, 312.00, 293.2, 0.48, 3.4, 52
2008/04/19, 00:12:44, 3766.00, 0.00, -11.02, -10.40, 1013.7, 76.3345570, -2.4305500, , 283.50, 0.28, 310.00, 1014.70, 0.70, 0.0, 38.66, 64.47, 69.5, 10, 2.9, 30.20240, 34.50780, 1.7894, 34.5078, 30.2024, 65.60, -0.1048, 1448.00, 37.40, 328.8, 0.41, 2.9, 52
2008/04/19, 00:13:44, 0.00, 0.00, -11.05, -10.40, 1013.7, 76.3344120, -2.4310350, , 223.00, 1.92, 310.20, 1014.68, 0.70, 0.0, 38.66, 64.71, 70.3, 329, 3.2, 30.19800, 34.50750, 1.7846, 34.5075, 30.1980, 65.60, -0.1028, 1448.01, 313.90, 280.6, 0.37, 3.4, 52
2008/04/19, 00:14:43, 3769.00, 0.00, -10.96, -10.40, 1013.6, 76.3342730, -2.4314800, , 162.10, 0.51, 310.40, 1014.63, 0.60, 0.0, 38.66, 65.02, 70.0, 26, 2.5, 30.20140, 34.50780, 1.7882, 34.5078, 30.2014, 65.60, -0.1021, 1448.01, 11.30, 342.1, 1.12, 2.8, 52
2008/04/19, 00:15:43, 0.00, 0.00, -11.02, -10.40, 1013.6, 76.3341270, -2.4319450, , 246.70, 0.46, 309.90, 1014.71, 0.60, 0.0, 38.66, 64.99, 70.1, 65, 1.7, 30.20700, 34.50820, 1.7943, 34.5082, 30.2070, 65.60, -0.1023, 1448.01, 14.00, 17.4, 1.02, 2.1, 52
2008/04/19, 00:16:43, 3768.00, 0.00, -11.07, -10.40, 1013.6, 76.3339850, -2.4323550, , 273.20, 0.64, 310.00, 1014.54, 0.60, 0.0, 38.66, 64.89, 69.7, 11, 3.2, 30.21040, 34.50740, 1.7990, 34.5074, 30.2104, 65.60, -0.1014, 1448.01, 6.80, 321.4, 0.74, 3.2, 52
2008/04/19, 00:17:44, 3769.00, 0.00, -11.10, -10.40, 1013.7, 76.3338250, -2.4328170, , 247.40, 0.57, 309.60, 1014.77, 0.50, 0.0, 38.66, 64.73, 70.0, 12, 3.0, 30.21310, 34.50800, 1.8015, 34.5080, 30.2131, 65.60, -0.1011, 1448.01, 42.20, 324.6, 0.49, 3.0, 52
2008/04/19, 00:18:43, 3769.00, 0.00, -11.02, -10.40, 1013.6, 76.3336800, -2.4331920, , 224.70, 1.38, 309.90, 1014.66, 0.60, 0.0, 38.66, 65.46, 70.3, 331, 2.4, 30.21810, 34.50650, 1.8087, 34.5065, 30.2181, 65.20, -0.1033, 1448.00, 32.30, 279.6, 0.26, 2.4, 52
2008/04/19, 00:19:43, 3767.00, 0.00, -10.88, -10.40, 1013.5, 76.3335450, -2.4335370, , 221.20, 1.19, 310.00, 1014.52, 0.80, 0.0, 38.66, 65.64, 70.5, 327, 4.4, 30.21720, 34.50700, 1.8072, 34.5070, 30.2172, 65.60, -0.1052, 1447.99, 258.40, 273.4, 0.94, 4.7, 52
2008/04/19, 00:20:43, 3766.00, 0.00, -10.88, -10.30, 1013.7, 76.3334070, -2.4339000, , 41.50, 0.75, 310.30, 1014.64, 0.90, 0.0, 38.66, 66.13, 70.9, 325, 4.9, 30.21680, 34.50730, 1.8065, 34.5073, 30.2168, 65.60, -0.1073, 1447.99, 333.40, 276.0, 0.40, 4.7, 52
2008/04/19, 00:21:43, 3766.00, 0.00, -10.99, -10.30, 1013.3, 76.3332670, -2.4342530, , 224.50, 0.75, 309.70, 1014.62, 0.80, 0.0, 38.66, 65.23, 70.2, 335, 4.7, 30.21490, 34.50660, 1.8048, 34.5066, 30.2149, 65.20, -0.1091, 1447.98, 277.60, 290.0, 1.38, 4.6, 52
2008/04/19, 00:22:43, 3768.00, 0.00, -10.99, -10.40, 1013.5, 76.3331130, -2.4345920, , 228.10, 1.28, 310.00, 1014.73, 1.20, 0.0, 38.66, 64.60, 69.7, 337, 5.8, 30.22310, 34.50660, 1.8143, 34.5066, 30.2231, 65.20, -0.1106, 1447.97, 252.40, 283.3, 1.81, 5.9, 52
2008/04/19, 00:23:43, 3766.00, 0.00, -10.91, -10.30, 1013.5, 76.3329750, -2.4348670, , 226.90, 1.28, 310.10, 1014.55, 1.00, 0.0, 38.66, 64.91, 70.6, 340, 4.6, 30.22860, 34.50680, 1.8206, 34.5068, 30.2286, 65.20, -0.1106, 1447.97, 263.20, 286.1, 1.58, 4.7, 52
2008/04/19, 00:24:44, 3766.00, 0.00, -10.82, -10.30, 1013.5, 76.3328330, -2.4351250, , 198.50, 1.46, 309.50, 1014.53, 1.30, 0.0, 38.66, 64.68, 69.9, 335, 3.6, 30.23050, 34.50600, 1.8234, 34.5060, 30.2305, 65.20, -0.1102, 1447.97, 257.80, 281.1, 2.19, 3.9, 52
2008/04/19, 00:25:43, 3769.00, 0.00, -10.85, -10.30, 1013.5, 76.3326850, -2.4352370, , 207.60, 1.50, 303.00, 1014.54, 1.00, 0.0, 38.66, 64.39, 69.9, 324, 3.9, 30.23160, 34.50680, 1.8241, 34.5068, 30.2316, 65.60, -0.1133, 1447.96, 248.90, 266.9, 2.32, 4.1, 52
2008/04/19, 00:26:43, 3768.00, 0.00, -10.88, -10.30, 1013.5, 76.3325000, -2.4353070, , 203.00, 1.32, 302.10, 1014.64, 1.00, 0.0, 38.66, 63.95, 69.5, 331, 4.2, 30.23180, 34.50710, 1.8239, 34.5071, 30.2318, 65.20, -0.1158, 1447.95, 249.70, 272.5, 1.90, 4.4, 52
2008/04/19, 00:27:43, 3769.00, 0.00, -10.88, -10.30, 1013.5, 76.3323300, -2.4352950, , 150.30, 0.31, 300.80, 1014.58, 1.20, 0.0, 38.66, 64.00, 69.3, 324, 3.8, 30.22920, 34.50740, 1.8206, 34.5074, 30.2292, 65.60, -0.1173, 1447.94, 282.60, 270.4, 0.43, 3.5, 52
2008/04/19, 00:28:43, 3769.00, 0.00, -10.94, -10.30, 1013.6, 76.3321250, -2.4353800, , 182.30, 1.14, 301.50, 1014.66, 1.00, 0.0, 38.66, 64.11, 69.2, 353, 2.4, 30.22240, 34.50700, 1.8133, 34.5070, 30.2224, 65.60, -0.1186, 1447.94, 300.60, 305.2, 0.54, 2.6, 52
2008/04/19, 00:29:43, 3768.00, 0.00, -10.94, -10.40, 1013.4, 76.3319530, -2.4355220, , 58.10, 0.83, 301.10, 1014.58, 1.00, 0.0, 38.66, 64.13, 69.2, 311, 4.0, 30.21780, 34.50830, 1.8067, 34.5083, 30.2178, 65.60, -0.1162, 1447.95, 34.60, 261.3, 1.05, 3.1, 52
2008/04/19, 00:30:43, 3766.00, 0.00, -11.05, -10.40, 1013.5, 76.3317880, -2.4358050, , 220.50, 1.89, 300.90, 1014.62, 0.80, 0.0, 38.66, 64.32, 69.4, 282, 4.5, 30.21630, 34.51090, 1.8027, 34.5109, 30.2163, 65.90, -0.1111, 1447.97, 142.10, 215.8, 0.27, 4.3, 52
2008/04/19, 00:31:43, 3768.00, 0.00, -10.88, -10.30, 1013.5, 76.3316230, -2.4361750, , 213.40, 1.99, 301.00, 1014.56, 0.60, 0.0, 38.66, 64.78, 69.8, 330, 4.5, 30.21490, 34.50870, 1.8030, 34.5087, 30.2149, 65.60, -0.1054, 1447.99, 18.10, 275.1, 0.46, 4.0, 52
2008/04/19, 00:32:44, 3766.00, 0.00, -10.82, -10.30, 1013.6, 76.3314630, -2.4366250, , 216.70, 0.93, 300.90, 1014.72, 0.60, 0.0, 38.66, 64.84, 69.8, 311, 5.0, 30.21240, 34.50590, 1.8026, 34.5059, 30.2124, 65.60, -0.1007, 1448.02, 319.10, 254.2, 0.84, 4.9, 52
2008/04/19, 00:33:43, 3766.00, 0.00, -10.88, -10.30, 1013.6, 76.3313100, -2.4370980, , 228.90, 0.42, 300.80, 1014.49, 0.70, 0.0, 38.66, 64.84, 70.0, 325, 4.9, 30.23210, 34.50930, 1.8223, 34.5093, 30.2321, 65.60, -0.0973, 1448.03, 294.20, 265.7, 0.64, 4.8, 52
2008/04/19, 00:34:43, 3769.00, 0.00, -10.94, -10.30, 1013.6, 76.3311620, -2.4375720, , 243.70, 0.44, 301.20, 1014.49, 0.90, 0.0, 38.66, 64.84, 70.4, 291, 5.2, 30.23610, 34.50880, 1.8273, 34.5088, 30.2361, 65.60, -0.0967, 1448.04, 303.90, 230.5, 1.14, 4.7, 52
2008/04/19, 00:35:43, 3769.00, 0.00, -10.88, -10.20, 1013.5, 76.3310180, -2.4379750, , 240.90, 1.21, 301.30, 1014.58, 1.10, 0.0, 38.66, 64.76, 69.6, 330, 5.1, 30.20570, 34.50730, 1.7937, 34.5073, 30.2057, 65.60, -0.0966, 1448.04, 288.10, 271.2, 1.33, 4.9, 52
2008/04/19, 00:36:43, 3767.00, 0.00, -10.88, -10.30, 1013.6, 76.3308400, -2.4382830, , 190.60, 1.30, 300.70, 1014.49, 0.90, 0.0, 38.66, 64.55, 69.7, 328, 4.2, 30.20860, 34.50610, 1.7982, 34.5061, 30.2086, 65.20, -0.0963, 1448.04, 268.50, 267.2, 1.69, 4.3, 52
2008/04/19, 00:37:43, 3766.00, 0.00, -10.96, -10.30, 1013.5, 76.3306580, -2.4385100, , 5.30, 0.32, 301.30, 1014.56, 1.10, 0.0, 38.66, 64.03, 69.4, 286, 5.4, 30.20560, 34.50710, 1.7938, 34.5071, 30.2056, 65.60, -0.0955, 1448.04, 283.20, 223.7, 1.09, 4.9, 52
2008/04/19, 00:38:43, 3768.00, 0.00, -10.85, -10.30, 1013.6, 76.3304670, -2.4387200, , 212.80, 1.98, 301.10, 1014.80, 1.00, 0.0, 38.66, 64.08, 69.4, 286, 4.9, 30.20140, 34.50720, 1.7888, 34.5072, 30.2014, 65.20, -0.0945, 1448.04, 272.50, 229.4, 1.60, 5.3, 52
2008/04/19, 00:39:44, 3766.00, 0.00, -10.82, -10.20, 1013.6, 76.3302700, -2.4388580, , 155.20, 0.73, 300.90, 1014.52, 1.20, 0.0, 38.66, 64.91, 70.1, 325, 3.6, 30.21640, 34.50840, 1.8051, 34.5084, 30.2164, 65.60, -0.0939, 1448.05, 281.20, 268.2, 0.97, 3.7, 52
2008/04/19, 00:40:43, 3769.00, 0.00, -10.85, -10.20, 1013.7, 76.3300570, -2.4390420, , 179.00, 0.84, 300.90, 1014.61, 1.20, 0.0, 38.66, 64.86, 70.0, 327, 4.4, 30.22340, 34.50690, 1.8145, 34.5069, 30.2234, 65.60, -0.0924, 1448.05, 271.10, 269.2, 0.77, 4.4, 52
2008/04/19, 00:41:43, 3768.00, 0.00, -10.94, -10.20, 1013.5, 76.3298570, -2.4391950, , 206.30, 1.03, 301.20, 1014.66, 1.00, 0.0, 38.66, 64.58, 69.6, 316, 4.2, 30.23020, 34.50800, 1.8212, 34.5080, 30.2302, 65.90, -0.0908, 1448.06, 297.30, 260.9, 0.61, 4.0, 52
2008/04/19, 00:42:44, 3768.00, 0.00, -10.82, -10.20, 1013.5, 76.3296520, -2.4393550, , 194.40, 1.58, 301.20, 1014.65, 0.90, 0.0, 38.66, 64.52, 69.5, 332, 4.7, 30.22900, 34.50740, 1.8205, 34.5074, 30.2290, 65.90, -0.0885, 1448.07, 270.30, 274.7, 1.64, 4.8, 52
2008/04/19, 00:43:44, 3766.00, 0.00, -10.88, -10.30, 1013.5, 76.3294500, -2.4395350, , 186.40, 0.79, 300.70, 1014.58, 1.20, 0.0, 38.66, 63.95, 69.0, 311, 4.5, 30.22830, 34.50650, 1.8206, 34.5065, 30.2283, 65.60, -0.0852, 1448.09, 270.00, 253.6, 1.61, 4.4, 52
2008/04/19, 00:44:43, 3766.00, 0.00, -10.91, -10.30, 1013.7, 76.3292330, -2.4397530, , 135.30, 0.48, 300.80, 1014.61, 1.20, 0.0, 38.66, 64.03, 69.2, 332, 3.1, 30.22740, 34.50620, 1.8196, 34.5062, 30.2274, 65.60, -0.0815, 1448.10, 302.40, 284.0, 0.55, 2.7, 52
2008/04/19, 00:45:43, 3768.00, 0.00, -10.88, -10.30, 1013.6, 76.3290150, -2.4399980, , 202.60, 0.83, 301.50, 1014.60, 1.20, 0.0, 38.66, 64.37, 69.2, 254, 5.0, 30.22340, 34.50750, 1.8139, 34.5075, 30.2234, 65.60, -0.0791, 1448.12, 344.90, 192.6, 0.78, 4.4, 52
2008/04/19, 00:46:43, 3769.00, 0.00, -10.85, -10.30, 1013.4, 76.3287920, -2.4402450, , 94.10, 0.23, 300.10, 1014.69, 1.20, 0.0, 38.66, 64.94, 70.1, 302, 4.7, 30.22180, 34.50700, 1.8125, 34.5070, 30.2218, 65.60, -0.0766, 1448.13, 349.90, 245.0, 0.76, 4.2, 52
2008/04/19, 00:47:43, 3768.00, 0.00, -10.71, -10.20, 1013.6, 76.3285720, -2.4404800, , 187.50, 1.11, 301.10, 1014.68, 1.40, 0.0, 38.66, 64.78, 70.0, 340, 4.0, 30.22520, 34.50800, 1.8155, 34.5080, 30.2252, 65.60, -0.0747, 1448.14, 287.10, 284.4, 1.30, 4.2, 52
2008/04/19, 00:48:43, 3766.00, 0.00, -10.88, -10.20, 1013.6, 76.3283480, -2.4406750, , 147.20, 0.68, 300.50, 1014.41, 1.30, 0.0, 38.66, 64.99, 70.1, 318, 5.8, 30.22850, 34.50880, 1.8186, 34.5088, 30.2285, 65.60, -0.0735, 1448.14, 328.80, 265.7, 1.31, 5.4, 52
2008/04/19, 00:49:43, 3766.00, 0.00, -10.80, -10.20, 1013.6, 76.3281150, -2.4408150, , 189.60, 0.51, 301.30, 1014.53, 1.30, 0.0, 38.66, 64.45, 69.5, 320, 3.9, 30.22190, 34.50740, 1.8123, 34.5074, 30.2219, 65.60, -0.0732, 1448.14, 279.90, 266.9, 1.29, 3.5, 52
2008/04/19, 00:50:44, 3769.00, 0.00, -10.85, -10.20, 1013.5, 76.3278930, -2.4409300, , 181.30, 0.73, 300.60, 1014.59, 1.60, 0.0, 38.66, 64.24, 69.3, 325, 2.6, 30.23030, 34.50940, 1.8201, 34.5094, 30.2303, 65.60, -0.0735, 1448.14, 272.30, 272.4, 1.04, 2.7, 52
2008/04/19, 00:51:43, 3766.00, 0.00, -10.88, -10.20, 1013.6, 76.3276750, -2.4411130, , 161.40, 0.79, 301.70, 1014.73, 1.50, 0.0, 38.66, 63.77, 69.1, 321, 3.9, 30.22950, 34.50740, 1.8210, 34.5074, 30.2295, 65.60, -0.0719, 1448.15, 39.20, 274.0, 0.62, 3.4, 52
2008/04/19, 00:52:44, 3769.00, 0.00, -10.80, -10.20, 1013.6, 76.3274680, -2.4412670, , 153.80, 0.91, 300.60, 1014.46, 1.40, 0.0, 38.66, 64.39, 69.2, 265, 1.9, 30.22930, 34.50780, 1.8205, 34.5078, 30.2293, 65.20, -0.0703, 1448.16, 4.60, 214.0, 0.30, 1.3, 52
2008/04/19, 00:53:43, 3769.00, 0.00, -10.77, -10.30, 1013.5, 76.3272500, -2.4414370, , 133.50, 0.66, 297.80, 1014.59, 1.30, 0.0, 38.66, 64.50, 69.3, 285, 1.5, 30.23540, 34.50710, 1.8281, 34.5071, 30.2354, 65.20, -0.0701, 1448.16, 246.90, 238.0, 0.57, 1.2, 52
2008/04/19, 00:54:44, 3766.00, 0.00, -10.85, -10.30, 1013.5, 76.3270470, -2.4415570, , 188.50, 1.14, 295.30, 1014.55, 1.20, 0.0, 38.66, 64.39, 69.3, 318, 2.5, 30.23990, 34.50740, 1.8330, 34.5074, 30.2399, 65.60, -0.0711, 1448.15, 237.60, 261.4, 0.27, 2.2, 52
2008/04/19, 00:55:43, 3766.00, 0.00, -10.68, -10.30, 1013.5, 76.3268450, -2.4416850, , 180.90, 1.04, 294.10, 1014.48, 1.40, 0.0, 38.66, 64.65, 69.5, 324, 2.3, 30.23080, 34.50570, 1.8241, 34.5057, 30.2308, 65.90, -0.0719, 1448.15, 292.70, 266.2, 0.26, 2.3, 52
2008/04/19, 00:56:43, 3766.00, 0.00, -10.77, -10.30, 1013.4, 76.3266380, -2.4418020, , 193.90, 1.15, 295.50, 1014.53, 1.20, 0.0, 38.66, 64.60, 69.5, 343, 3.0, 30.24130, 34.50870, 1.8335, 34.5087, 30.2413, 65.90, -0.0719, 1448.15, 20.30, 292.6, 0.65, 2.9, 52
2008/04/19, 00:57:44, 3769.00, 0.00, -10.94, -10.30, 1013.5, 76.3264280, -2.4419070, , 165.00, 1.03, 295.10, 1014.46, 1.50, 0.0, 38.66, 64.58, 69.6, 329, 2.2, 30.23820, 34.50900, 1.8296, 34.5090, 30.2382, 65.60, -0.0721, 1448.15, 24.70, 285.4, 0.75, 1.9, 52
2008/04/19, 00:58:43, 3766.00, 0.00, -10.80, -10.20, 1013.4, 76.3262170, -2.4420120, , 150.10, 0.21, 294.60, 1014.57, 1.10, 0.0, 38.66, 64.71, 70.1, 350, 3.3, 30.23590, 34.50770, 1.8281, 34.5077, 30.2359, 65.60, -0.0712, 1448.15, 15.50, 294.0, 0.66, 3.3, 52
2008/04/19, 00:59:43, 3766.00, 0.00, -10.77, -10.20, 1013.5, 76.3260000, -2.4420730, , 44.60, 1.14, 295.50, 1014.58, 1.10, 0.0, 38.66, 65.67, 70.9, 313, 2.9, 30.23950, 34.50740, 1.8326, 34.5074, 30.2395, 65.60, -0.0691, 1448.16, 30.60, 262.8, 1.05, 2.1, 52
2008/04/19, 01:00:43, 3766.00, 0.00, -10.82, -10.20, 1013.5, 76.3257820, -2.4421680, , 171.10, 0.46, 295.10, 1014.56, 1.10, 0.0, 38.66, 66.03, 71.4, 330, 3.8, 30.23530, 34.50800, 1.8271, 34.5080, 30.2353, 65.90, -0.0669, 1448.17, 14.20, 276.6, 0.91, 3.6, 52
2008/04/19, 01:01:44, 3770.00, 0.00, -10.94, -10.10, 1013.5, 76.3255620, -2.4422600, , 183.70, 1.63, 295.30, 1014.61, 1.20, 0.0, 38.66, 64.24, 69.7, 328, 5.2, 30.24040, 34.50820, 1.8328, 34.5082, 30.2404, 65.60, -0.0645, 1448.19, 262.80, 262.6, 0.83, 5.3, 52
2008/04/19, 01:02:44, 3769.00, 0.00, -10.82, -10.20, 1013.4, 76.3253430, -2.4423770, , 184.00, 0.93, 295.00, 1014.43, 1.70, 0.0, 38.66, 62.33, 68.2, 311, 6.0, 30.24180, 34.50790, 1.8348, 34.5079, 30.2418, 65.60, -0.0627, 1448.19, 261.00, 246.0, 1.41, 5.9, 52
2008/04/19, 01:03:43, 3766.00, 0.00, -10.91, -10.20, 1013.4, 76.3251350, -2.4424720, , 151.20, 1.16, 294.70, 1014.34, 1.80, 0.0, 38.66, 61.04, 66.7, 310, 4.0, 30.24400, 34.50850, 1.8367, 34.5085, 30.2440, 65.60, -0.0616, 1448.20, 269.80, 251.1, 1.28, 3.5, 52
2008/04/19, 01:04:43, 3766.00, 0.00, -10.77, -10.20, 1013.4, 76.3249180, -2.4426080, , 212.70, 0.99, 295.80, 1014.70, 1.90, 0.0, 38.66, 60.23, 65.7, 301, 4.4, 30.24580, 34.50830, 1.8390, 34.5083, 30.2458, 65.60, -0.0603, 1448.20, 284.80, 237.9, 0.78, 4.0, 52
2008/04/19, 01:05:43, 3768.00, 0.00, -10.91, -10.20, 1013.5, 76.3246930, -2.4427500, , 186.30, 1.27, 294.60, 1014.37, 1.90, 0.0, 38.66, 60.33, 65.5, 305, 5.3, 30.24730, 34.50890, 1.8401, 34.5089, 30.2473, 65.60, -0.0600, 1448.20, 313.20, 242.3, 1.03, 4.8, 52
2008/04/19, 01:06:43, 3769.00, 0.00, -10.66, -10.20, 1013.4, 76.3244700, -2.4428880, , 170.80, 0.95, 294.60, 1014.52, 2.00, 0.0, 38.66, 60.39, 65.0, 297, 4.5, 30.24700, 34.50770, 1.8409, 34.5077, 30.2470, 65.60, -0.0594, 1448.21, 272.70, 232.4, 1.21, 4.3, 52
2008/04/19, 01:07:44, 3766.00, 0.00, -10.71, -10.10, 1013.4, 76.3242220, -2.4430900, , 179.00, 0.75, 295.20, 1014.42, 1.80, 0.0, 38.66, 60.73, 65.5, 344, 4.9, 30.24640, 34.50860, 1.8394, 34.5086, 30.2464, 65.60, -0.0587, 1448.21, 296.30, 282.8, 0.80, 4.8, 52
2008/04/19, 01:08:43, 3766.00, 0.00, -10.74, -10.10, 1013.5, 76.3239970, -2.4432250, , 102.10, 0.51, 294.80, 1014.59, 2.10, 0.0, 38.66, 60.12, 64.7, 324, 4.3, 30.25020, 34.50730, 1.8451, 34.5073, 30.2502, 65.60, -0.0580, 1448.21, 285.30, 264.5, 0.71, 3.9, 52
2008/04/19, 01:09:43, 3766.00, 0.00, -10.77, -10.10, 1013.4, 76.3237620, -2.4433370, , 167.50, 0.96, 295.30, 1014.30, 1.70, 0.0, 38.66, 59.44, 63.9, 312, 5.2, 30.24400, 34.50860, 1.8367, 34.5086, 30.2440, 65.60, -0.0574, 1448.22, 243.10, 250.1, 0.71, 4.6, 52
2008/04/19, 01:10:43, 3769.00, 0.00, -10.66, -10.10, 1013.3, 76.3235300, -2.4433980, , 185.20, 1.62, 295.10, 1014.37, 2.00, 0.0, 38.66, 58.80, 63.2, 312, 4.7, 30.25220, 34.50840, 1.8463, 34.5084, 30.2522, 65.60, -0.0575, 1448.22, 249.10, 249.7, 1.01, 4.5, 52
2008/04/19, 01:11:43, 3766.00, 0.00, -10.74, -10.10, 1013.3, 76.3233020, -2.4434770, , 164.40, 0.75, 295.00, 1014.37, 1.80, 0.0, 38.66, 58.72, 62.9, 306, 4.1, 30.25270, 34.50810, 1.8472, 34.5081, 30.2527, 65.60, -0.0587, 1448.21, 271.00, 246.0, 1.02, 3.8, 52
2008/04/19, 01:12:43, 3768.00, 0.00, -10.66, -10.10, 1013.4, 76.3230850, -2.4435620, , 144.10, 1.16, 294.70, 1014.39, 1.90, 0.0, 38.66, 59.12, 63.4, 297, 3.5, 30.25090, 34.50920, 1.8441, 34.5092, 30.2509, 65.60, -0.0606, 1448.20, 288.60, 237.6, 0.58, 3.0, 52
2008/04/19, 01:13:43, 3766.00, 0.00, -10.74, -10.10, 1013.4, 76.3228600, -2.4436450, , 197.50, 1.78, 295.40, 1014.38, 1.90, 0.0, 38.66, 59.12, 63.1, 293, 2.2, 30.25160, 34.50880, 1.8452, 34.5088, 30.2516, 65.60, -0.0631, 1448.19, 277.30, 233.3, 0.41, 2.0, 52
2008/04/19, 01:14:43, 3766.00, 0.00, -10.68, -10.10, 1013.3, 76.3226470, -2.4437330, , 152.80, 0.35, 295.30, 1014.49, 2.00, 0.0, 38.66, 59.67, 63.4, 282, 2.4, 30.25240, 34.50770, 1.8471, 34.5077, 30.2524, 65.60, -0.0648, 1448.18, 234.90, 220.5, 0.97, 1.9, 52
2008/04/19, 01:15:43, 3766.00, 0.00, -10.71, -10.10, 1013.5, 76.3224420, -2.4437850, , 216.40, 0.94, 295.20, 1014.44, 2.10, 0.0, 38.66, 59.57, 63.4, 286, 1.5, 30.25190, 34.50820, 1.8461, 34.5082, 30.2519, 65.60, -0.0652, 1448.18, 231.60, 228.7, 1.07, 1.1, 52
2008/04/19, 01:16:43, 3769.00, 0.00, -10.68, -10.10, 1013.3, 76.3222250, -2.4438680, , 200.10, 1.02, 294.90, 1014.39, 2.20, 0.0, 38.66, 60.02, 63.7, 308, 2.7, 30.25270, 34.50860, 1.8467, 34.5086, 30.2527, 65.60, -0.0650, 1448.18, 206.70, 250.8, 0.77, 2.5, 52
2008/04/19, 01:17:43, 3766.00, 0.00, -10.57, -10.10, 1013.4, 76.3220230, -2.4439300, , 72.20, 0.89, 294.50, 1014.36, 2.10, 0.0, 38.66, 60.57, 64.1, 327, 2.7, 30.25320, 34.50830, 1.8476, 34.5083, 30.2532, 65.60, -0.0649, 1448.18, 32.20, 282.1, 0.20, 2.3, 52
2008/04/19, 01:18:44, 3765.00, 0.00, -10.77, -10.10, 1013.3, 76.3217980, -2.4440550, , 170.90, 0.84, 295.60, 1014.34, 2.10, 0.0, 38.66, 59.70, 63.7, 311, 4.1, 30.25060, 34.50870, 1.8442, 34.5087, 30.2506, 65.90, -0.0653, 1448.18, 233.10, 249.4, 0.45, 3.9, 52
2008/04/19, 01:19:43, 3769.00, 0.00, -10.57, -10.20, 1013.2, 76.3215820, -2.4441730, , 191.90, 1.77, 294.70, 1014.41, 2.10, 0.0, 38.66, 59.78, 63.7, 311, 3.1, 30.25070, 34.50840, 1.8446, 34.5084, 30.2507, 65.60, -0.0659, 1448.18, 248.50, 250.1, 0.67, 3.0, 52
2008/04/19, 01:20:44, 3766.00, 0.00, -10.60, -10.10, 1013.3, 76.3213500, -2.4442980, , 160.80, 0.38, 295.40, 1014.40, 2.30, 0.0, 38.66, 60.26, 64.1, 307, 2.9, 30.24860, 34.50780, 1.8427, 34.5078, 30.2486, 65.90, -0.0666, 1448.17, 259.20, 246.2, 0.48, 2.7, 52
2008/04/19, 01:21:43, 3768.00, 0.00, -10.52, -10.10, 1013.2, 76.3211250, -2.4443800, , 187.90, 1.15, 294.80, 1014.38, 2.10, 0.0, 38.66, 59.73, 63.9, 334, 3.9, 30.24710, 34.50850, 1.8404, 34.5085, 30.2471, 65.60, -0.0676, 1448.17, 274.60, 273.9, 0.50, 4.0, 52
2008/04/19, 01:22:44, 3769.00, 0.00, -10.60, -10.10, 1013.2, 76.3208950, -2.4444770, , 200.90, 0.60, 295.50, 1014.39, 2.20, 0.0, 38.66, 59.65, 63.7, 331, 3.5, 30.24460, 34.50970, 1.8364, 34.5097, 30.2446, 65.90, -0.0694, 1448.16, 316.50, 270.8, 0.21, 3.5, 52
2008/04/19, 01:23:43, 3766.00, 0.00, -10.60, -10.10, 1013.3, 76.3206750, -2.4445680, , 99.90, 0.42, 294.80, 1014.30, 2.20, 0.0, 38.66, 59.41, 63.4, 314, 4.2, 30.23920, 34.50830, 1.8313, 34.5083, 30.2392, 65.20, -0.0729, 1448.15, 11.30, 254.5, 0.62, 3.8, 52
2008/04/19, 01:24:43, 3766.00, 0.00, -10.66, -10.10, 1013.2, 76.3204480, -2.4446720, , 177.80, 0.75, 295.10, 1014.28, 2.40, 0.0, 38.66, 60.02, 64.6, 285, 2.6, 30.24830, 34.50830, 1.8419, 34.5083, 30.2483, 65.90, -0.0751, 1448.14, 333.90, 224.8, 0.30, 2.3, 52
2008/04/19, 01:25:43, 3768.00, 0.00, -10.49, -10.10, 1013.2, 76.3202270, -2.4447870, , 184.80, 1.34, 294.80, 1014.35, 2.20, 0.0, 38.66, 60.52, 64.7, 306, 4.0, 30.24750, 34.50990, 1.8395, 34.5099, 30.2475, 65.60, -0.0762, 1448.13, 343.50, 247.1, 0.64, 3.8, 52
2008/04/19, 01:26:43, 3768.00, 0.00, -10.57, -10.00, 1013.2, 76.3200050, -2.4448650, , 206.30, 2.26, 295.30, 1014.15, 2.40, 0.0, 38.66, 61.02, 65.4, 331, 2.5, 30.24580, 34.50940, 1.8380, 34.5094, 30.2458, 65.90, -0.0781, 1448.12, 237.50, 259.4, 0.71, 2.7, 52
2008/04/19, 01:27:43, 3768.00, 0.00, -10.52, -10.00, 1013.3, 76.3197900, -2.4449550, , 180.30, 1.28, 295.10, 1014.22, 2.50, 0.0, 38.66, 61.60, 66.1, 311, 3.8, 30.24200, 34.51000, 1.8330, 34.5100, 30.2420, 65.60, -0.0813, 1448.11, 294.60, 247.9, 0.42, 4.0, 52
2008/04/19, 01:28:43, 3768.00, 0.00, -10.63, -10.00, 1013.2, 76.3195620, -2.4450520, , 198.60, 1.94, 294.60, 1014.33, 2.40, 0.0, 38.66, 61.10, 65.4, 323, 4.0, 30.23960, 34.50990, 1.8304, 34.5099, 30.2396, 65.60, -0.0841, 1448.10, 248.60, 254.5, 0.51, 4.3, 52
2008/04/19, 01:29:43, 3766.00, 0.00, -10.52, -10.00, 1013.1, 76.3193370, -2.4450800, , 196.40, 1.58, 295.10, 1014.27, 2.30, 0.0, 38.66, 61.31, 65.5, 304, 3.2, 30.24280, 34.50880, 1.8351, 34.5088, 30.2428, 65.60, -0.0850, 1448.09, 307.80, 246.6, 0.67, 3.0, 52
2008/04/19, 01:30:43, 3765.00, 0.00, -10.46, -10.00, 1013.3, 76.3191120, -2.4450970, , 65.40, 0.43, 295.30, 1014.17, 2.60, 0.0, 38.66, 61.86, 66.4, 302, 3.2, 30.23940, 34.50900, 1.8309, 34.5090, 30.2394, 65.60, -0.0847, 1448.09, 329.20, 246.0, 0.74, 2.7, 52